Hurghada, Egypt

7:30 PM EET on August 28, 2016 (GMT +0200)
Hurghada International

Weather History for HEGN - November, 2013

Change the Weather History Date:

Tuesday, November 19, 2013

  Actual Average Record
Temperature  
Mean Temperature 73 °F -  
Max Temperature 84 °F 73 °F 86 °F (2010)
Min Temperature 62 °F 57 °F 57 °F (2001)
Cooling Degree Days 8    
Growing Degree Days 23 (Base 50)    
Moisture  
Dew Point 56 °F    
Average Humidity 58    
Maximum Humidity 73    
Minimum Humidity 29    
Precipitation  
Precipitation 0.00 in - - ()
Sea Level Pressure  
Sea Level Pressure 29.94 in    
Wind  
Wind Speed 10 mph ()    
Max Wind Speed 17 mph    
Max Gust Speed -    
Visibility 6.0 miles    
Events      
Averages and records for this station are not official NWS values.
T = Trace of Precipitation, MM = Missing Value Source: Averaged Metar Reports

Daily Weather History Graph

Daily Weather History Graph

Search for Another Location

Airport or City:

Trip Planner

Search our weather history database for the weather conditions in past years. The results will help you decide how hot, cold, wet, or windy it might be!

Date:

Astronomy

Nov. 19, 2013 Rise Set
Actual Time 6:07 AM EET 4:52 PM EET
Civil Twilight 5:43 AM EET 5:16 PM EET
Nautical Twilight 5:14 AM EET 5:45 PM EET
Astronomical Twilight 4:47 AM EET 6:13 PM EET
Moon 6:27 PM EET (11/19) 7:28 AM EET (11/19)
Length of Visible Light 11h 33m
Length of Day
10h 44m
Full, 97% of the Moon is Illuminated
Nov 19
Full
Nov 25
Last Quarter
Dec 3
New
Dec 9
First Quarter
Dec 17
Full

Hourly Weather History & Observations

Time (EET) Temp. Heat Index Dew Point Humidity Pressure Visibility Wind Dir Wind Speed Gust Speed Precip Events Conditions
12:00 AM 66.2 °F - 55.4 °F 68% 29.92 in - NW 12.7 mph - N/A   Clear
1:00 AM 66.2 °F - 55.4 °F 68% 29.92 in - NW 13.8 mph - N/A   Clear
2:00 AM 66 °F - 56 °F 61% 29.92 in 6 mi NW 13.8 mph - -  
2:00 AM 66.2 °F - 55.4 °F 68% 29.92 in - NW 13.8 mph - N/A   Clear
3:00 AM 66.2 °F - 55.4 °F 68% 29.92 in - NW 15.0 mph - N/A   Clear
4:00 AM 66.2 °F - 57.2 °F 73% 29.92 in - NW 12.7 mph - N/A   Clear
5:00 AM 63 °F - 54 °F 66% 29.90 in 6 mi NW 9.2 mph - -  
5:00 AM 64.4 °F - 53.6 °F 68% 29.89 in - NW 9.2 mph - N/A   Clear
6:00 AM 64.4 °F - 53.6 °F 68% 29.89 in - NW 9.2 mph - N/A   Clear
7:00 AM 62.6 °F - 53.6 °F 72% 29.95 in - NNW 6.9 mph - N/A   Clear
8:00 AM 68 °F - 55 °F 54% 29.96 in 6 mi NNW 9.2 mph - -  
8:00 AM 68.0 °F - 55.4 °F 64% 29.95 in - NNW 9.2 mph - N/A   Clear
9:00 AM 71.6 °F - 59.0 °F 64% 29.95 in - NNW 9.2 mph - N/A   Clear
10:00 AM 73.4 °F - 57.2 °F 57% 29.98 in - North 17.3 mph - N/A   Clear
11:00 AM 77 °F - 57 °F 40% 29.96 in 6 mi North 15.0 mph - -  
11:00 AM 77.0 °F - 57.2 °F 50% 29.95 in - North 15.0 mph - N/A   Clear
12:00 PM 80.6 °F 80.5 °F 55.4 °F 42% 29.92 in 6.2 mi North 10.4 mph - N/A   Partly Cloudy
1:00 PM 82.4 °F 82.0 °F 57.2 °F 42% 29.92 in 6.2 mi North 11.5 mph - N/A   Partly Cloudy
2:00 PM 84 °F - 56 °F 29% 29.91 in 6 mi North 6.9 mph - -  
2:00 PM 84.2 °F 83.5 °F 57.2 °F 40% 29.89 in - North 6.9 mph - N/A   Clear
3:00 PM 82.4 °F 81.7 °F 55.4 °F 39% 29.89 in - NNE 4.6 mph - N/A   Clear
4:00 PM 78.8 °F - 57.2 °F 47% 29.92 in - NNE 8.1 mph - N/A   Clear
5:00 PM 75 °F - 57 °F 43% 29.93 in 6 mi North 6.9 mph - -  
5:00 PM 75.2 °F - 57.2 °F 53% 29.92 in - North 6.9 mph - N/A   Clear
6:00 PM 73.4 °F - 59.0 °F 61% 29.95 in - NNW 8.1 mph - N/A   Clear
7:00 PM 69.8 °F - 59.0 °F 68% 29.95 in - WNW 4.6 mph - N/A   Clear
8:00 PM 70 °F - 58 °F 58% 29.99 in 6 mi NNW 11.5 mph - -  
8:00 PM 69.8 °F - 59.0 °F 68% 29.98 in - NNW 11.5 mph - N/A   Clear
9:00 PM 68.0 °F - 55.4 °F 64% 29.98 in - WNW 6.9 mph - N/A   Clear
10:00 PM 66.2 °F - 53.6 °F 64% 30.01 in - WNW 13.8 mph - N/A   Clear
11:00 PM 67 °F - 53 °F 52% 30.00 in 6 mi WNW 11.5 mph - -  
11:00 PM 66.2 °F - 53.6 °F 64% 29.98 in - WNW 11.5 mph - N/A   Clear